Track LING QIAO now! 10-day predictions LING QIAO is classified as:
1 40136U 14051A 22177.80614485 .00000025 00000-0 26853-4 0 9995 2 40136 98.6034 165.1855 0022074 107.8485 252.5107 14.29731396407621